Location: Unspecified
(0.0000°N, 0.0000°E)
Time: 14:36:49
(UTC+00:00)

Envisat - Pass Details

Date: 20 August 2019
Orbit: 764 x 766 km, 98.1° (Epoch: 21 August)

Event Time Altitude Azimuth Distance (km) Brightness Sun altitude
Rises 18:21:00 0° 159° (SSE) 3,230 5.9 -4.3°
Reaches altitude 10° 18:23:22 10° 154° (SSE) 2,301 5.1 -4.9°
Maximum altitude 18:28:17 52° 78° (ENE) 943 3.2 -6.1°
Drops below altitude 10° 18:33:11 10° 2° (N) 2,291 5.6 -7.3°
Sets 18:35:32 0° 358° (N) 3,213 6.4 -7.8°
